Purchase, NY

12:14 PM EST on February 12, 2016 (GMT -0500)
Westchester County

Weather History for KHPN - December, 2014

Change the Weather History Date:

Tuesday, December 2, 2014

  Actual Average Record
Temperature  
Mean Temperature 34 °F -  
Max Temperature 37 °F 44 °F 62 °F (1998)
Min Temperature 30 °F 30 °F 10 °F (2000)
Degree Days  
Heating Degree Days 32    
Moisture  
Dew Point 27 °F    
Average Humidity 74    
Maximum Humidity 96    
Minimum Humidity 52    
Precipitation  
Precipitation 0.09 in - - ()
Sea Level Pressure  
Sea Level Pressure 30.50 in    
Wind  
Wind Speed 9 mph (NE)    
Max Wind Speed 13 mph    
Max Gust Speed 21 mph    
Visibility 6 miles    
Events Rain , Snow    
Averages and records for this station are not official NWS values.
T = Trace of Precipitation, MM = Missing Value Source: NWS Daily Summary

Daily Weather History Graph

Daily Weather History Graph

Search for Another Location

Airport or City:

Trip Planner

Search our weather history database for the weather conditions in past years. The results will help you decide how hot, cold, wet, or windy it might be!

Date:

Astronomy

Dec. 02, 2014 Rise Set
Actual Time 7:01 AM EST 4:26 PM EST
Civil Twilight 6:30 AM EST 4:57 PM EST
Nautical Twilight 5:56 AM EST 5:31 PM EST
Astronomical Twilight 5:23 AM EST 6:04 PM EST
Moon 2:08 PM EST (12/2) 2:39 AM EST (12/2)
Length of Visible Light 10h 26m
Length of Day
9h 25m
Waxing Gibbous, 84% of the Moon is Illuminated
Dec 2
Waxing Gibbous
Dec 6
Full
Dec 14
Last Quarter
Dec 21
New
Dec 28
First Quarter

Hourly Weather History & Observations

Time (EST) Temp. Windchill Dew Point Humidity Pressure Visibility Wind Dir Wind Speed Gust Speed Precip Events Conditions
12:56 AM 37.0 °F 31.0 °F 21.9 °F 54% 30.48 in 10.0 mi North 8.1 mph - N/A   Clear
1:56 AM 36.0 °F 30.3 °F 21.0 °F 55% 30.51 in 10.0 mi North 6.9 mph - N/A   Clear
2:56 AM 35.1 °F 29.3 °F 19.9 °F 54% 30.54 in 10.0 mi North 6.9 mph - N/A   Mostly Cloudy
3:56 AM 34.0 °F 26.0 °F 19.0 °F 54% 30.56 in 10.0 mi North 10.4 mph - N/A   Partly Cloudy
4:56 AM 32.0 °F 23.0 °F 18.0 °F 56% 30.57 in 10.0 mi North 11.5 mph - N/A   Scattered Clouds
5:56 AM 32.0 °F 23.0 °F 17.1 °F 54% 30.58 in 10.0 mi North 11.5 mph - N/A   Scattered Clouds
6:56 AM 30.9 °F 22.2 °F 17.1 °F 57% 30.60 in 10.0 mi North 10.4 mph - N/A   Mostly Cloudy
7:56 AM 30.9 °F 23.5 °F 17.1 °F 57% 30.63 in 10.0 mi North 8.1 mph - N/A   Mostly Cloudy
8:56 AM 32.0 °F 24.2 °F 18.0 °F 56% 30.63 in 10.0 mi NNE 9.2 mph - N/A   Mostly Cloudy
9:56 AM 35.1 °F 27.4 °F 19.9 °F 54% 30.63 in 10.0 mi NE 10.4 mph 17.3 mph 0.00 in   Scattered Clouds
10:56 AM 37.0 °F 31.0 °F 21.0 °F 52% 30.61 in 10.0 mi East 8.1 mph - N/A   Clear
11:56 AM 37.9 °F 30.5 °F 23.0 °F 55% 30.58 in 10.0 mi ENE 11.5 mph 18.4 mph N/A   Scattered Clouds
12:56 PM 37.9 °F 30.9 °F 24.1 °F 57% 30.57 in 10.0 mi East 10.4 mph - N/A   Mostly Cloudy
1:53 PM 37.4 °F 30.3 °F 28.4 °F 70% 30.54 in 1.5 mi East 10.4 mph - 0.00 in Snow Light Snow
1:56 PM 37.0 °F 31.0 °F 28.0 °F 70% 30.56 in 1.5 mi East 8.1 mph - 0.00 in Snow Light Snow
2:56 PM 35.1 °F 28.6 °F 33.1 °F 92% 30.55 in 1.5 mi ENE 8.1 mph - 0.02 in Snow Light Snow
3:56 PM 37.0 °F 29.3 °F 34.0 °F 89% 30.51 in 8.0 mi East 11.5 mph 19.6 mph 0.01 in   Light Drizzle
4:56 PM 36.0 °F 29.0 °F 33.1 °F 89% 30.51 in 9.0 mi East 9.2 mph 17.3 mph 0.00 in   Light Drizzle
5:18 PM 35.6 °F 28.6 °F 33.8 °F 93% 30.48 in 2.5 mi East 9.2 mph 20.7 mph 0.01 in   Overcast
5:56 PM 36.0 °F 28.5 °F 33.1 °F 89% 30.50 in 2.5 mi East 10.4 mph - 0.01 in   Mostly Cloudy
6:56 PM 36.0 °F 28.5 °F 34.0 °F 93% 30.49 in 2.5 mi ENE 10.4 mph - N/A   Mostly Cloudy
7:56 PM 36.0 °F 28.0 °F 34.0 °F 93% 30.44 in 2.5 mi East 11.5 mph 18.4 mph N/A   Mostly Cloudy
8:03 PM 35.6 °F 27.1 °F 33.8 °F 93% 30.41 in 3.0 mi East 12.7 mph 17.3 mph N/A   Overcast
8:52 PM 37.4 °F 30.3 °F 35.6 °F 93% 30.38 in 2.5 mi East 10.4 mph 19.6 mph N/A   Overcast
8:56 PM 37.0 °F 31.6 °F 35.1 °F 93% 30.41 in 2.5 mi East 6.9 mph 19.6 mph N/A   Overcast
9:56 PM 37.9 °F 31.5 °F 36.0 °F 93% 30.38 in 2.5 mi East 9.2 mph 17.3 mph N/A   Mist
10:56 PM 37.0 °F 33.3 °F 36.0 °F 96% 30.36 in 2.5 mi North 4.6 mph - 0.01 in   Mist
11:37 PM 37.4 °F 31.4 °F 35.6 °F 93% 30.31 in 3.0 mi ENE 8.1 mph - 0.04 in Rain Light Rain
11:56 PM 37.0 °F 30.4 °F 36.0 °F 96% 30.31 in 3.0 mi ENE 9.2 mph - 0.04 in Rain Light Rain